Location: Ay?beleni
(36.6500°N, 30.3000°E)
Time: 23:42:16
(UTC+00:00)

Cosmos 2058 Rocket - Pass Details

Date: 09 April 2020
Orbit: 609 x 640 km, 82.5° (Epoch: 24 May)

Event Time Altitude Azimuth Distance (km) Brightness Sun altitude
Rises 17:12:43 0° 166° (SSE) 2,927 6.2 -9.5°
Reaches altitude 10° 17:15:05 10° 158° (SSE) 2,024 5.3 -9.9°
Maximum altitude 17:19:13 37° 91° (E) 998 3.6 -10.7°
Drops below altitude 10° 17:23:21 10° 25° (NNE) 2,034 5.7 -11.5°
Sets 17:25:43 0° 17° (NNE) 2,944 6.6 -12.0°
